Simultaneous Nadir Overpasses (SNOs) Predictions

Prediction of SNOs between GOES-16 and NOAA-20 Satellite Orbit:

Table of predicted SNOs for the next 14.0 days since TLE Epoch: 6/29/2018
Index Date Time (GOES-16) GOES-16 Lat,Lon NOAA-20 Lat,Lon Distance(km) Time Diff (sec)
1 07/01/2018 06:44:05 -0.02, -75.20 0.96, -79.44 484.02 80
2 07/02/2018 06:22:41 -0.02, -75.21 -0.09, -74.92 32.70 80
3 07/04/2018 18:25:54 0.02, -75.23 -0.08, -75.70 53.80 80
4 07/05/2018 18:09:50 0.02, -75.24 0.92, -71.17 463.52 80
5 07/07/2018 06:31:38 -0.02, -75.26 0.27, -76.44 135.64 80
6 07/08/2018 06:10:14 -0.03, -75.27 -0.79, -71.92 381.76 80
7 07/09/2018 18:32:12 0.03, -75.29 -0.38, -77.23 221.30 80
8 07/10/2018 18:16:07 0.03, -75.30 0.62, -72.70 296.26 80
9 07/12/2018 06:37:56 -0.04, -75.32 0.57, -77.97 302.45 80
10 07/13/2018 06:16:32 -0.04, -75.33 -0.49, -73.45 215.17 80




NCC Satellite Simultaneous Nadir Overpasses (SNOs) Prediction Service
